Wind_Speed
23 24 24 25 24 16 12 11 10 10 8 7 6 6 5 4 4 3 3 3 2 2 2 3 4 4 6 6 6 6 6 7 8 8 8 8 8 7 7 7 7 7 7 7 6 6 6 6 5
23 22 27 26 18 14 14 13 12 11 10 9 7 7 7 5 5 4 3 3 3 3 3 3 3 3 5 5 5 4 5 6 7 7 7 7 7 8 7 7 7 7 6 6 6 6 5 5 4
23 25 28 20 14 14 14 14 13 12 10 10 10 9 8 7 6 5 4 4 4 3 3 3 2 2 3 3 3 3 4 5 6 6 7 6 6 7 7 7 6 6 6 5 5 5 4 4 4
24 29 25 16 15 15 15 15 15 14 12 11 10 10 9 8 7 6 5 5 5 4 3 3 2 2 2 3 3 3 3 3 5 5 6 6 6 6 6 6 6 6 5 5 5 4 3 3 4
27 25 18 14 15 15 15 15 15 14 13 12 11 10 10 9 8 7 7 7 6 5 3 2 1 0 1 3 3 3 3 3 4 5 5 5 6 6 5 5 5 5 5 4 4 4 3 3 4
25 19 14 12 14 14 14 15 15 15 14 13 12 11 10 9 9 9 9 8 7 6 4 3 2 1 1 1 2 2 3 3 4 5 5 5 5 5 5 5 5 5 5 4 4 4 3 3 4
19 15 13 12 13 14 13 12 13 14 15 14 13 12 11 10 10 9 9 8 8 6 5 4 3 2 1 0 1 2 2 3 4 5 5 5 5 5 5 4 4 5 5 4 4 4 3 3 4
16 14 13 10 11 12 12 12 14 15 16 16 16 14 13 11 10 9 9 9 8 7 6 5 3 2 1 1 2 2 2 3 3 4 5 4 4 5 4 4 3 4 5 4 4 4 3 3 4
13 12 10 10 10 11 12 12 15 16 17 18 17 16 14 12 11 10 10 10 9 8 6 5 4 3 2 1 1 3 3 3 3 4 4 5 4 4 4 4 4 4 4 4 4 3 4 4 3
11 9 8 9 9 11 12 13 15 16 17 18 17 16 15 13 12 12 12 11 11 9 8 6 5 4 3 1 1 2 2 3 3 3 4 4 4 4 4 4 4 3 4 4 3 4 4 3 4
7 6 7 9 10 11 12 13 14 15 17 17 18 17 16 15 14 14 13 12 12 11 10 8 7 6 5 3 2 1 2 2 3 3 3 3 3 4 4 4 3 3 3 3 4 4 4 4 4
5 6 7 8 10 11 11 12 13 15 15 16 17 17 17 16 16 15 15 14 13 12 11 10 9 8 6 4 3 1 1 2 3 3 3 3 3 3 3 4 4 3 3 3 4 4 5 5 5
3 5 7 8 9 9 10 12 14 15 16 17 17 17 17 17 17 16 16 15 15 14 13 12 11 10 8 6 5 2 1 2 2 3 4 4 4 4 4 4 4 4 3 3 4 4 5 5 5
2 3 6 8 8 8 8 10 14 15 16 17 18 18 18 18 17 16 16 15 15 14 14 13 12 11 10 7 6 4 1 2 2 3 3 3 4 4 4 4 4 3 3 2 3 4 6 5 5
3 4 6 7 7 8 9 9 11 15 16 16 18 18 18 17 17 16 16 16 16 15 15 14 13 12 11 9 8 6 3 2 2 2 3 3 4 4 4 4 4 4 3 3 3 4 5 5 5
3 4 3 5 6 8 10 11 11 13 15 16 17 18 18 18 17 16 16 16 16 15 15 15 15 14 12 10 9 6 4 3 2 3 3 4 4 5 5 5 4 4 4 4 4 4 5 5 5
1 3 3 5 6 5 7 9 9 12 14 15 16 17 17 17 17 17 16 16 16 16 16 15 15 14 13 12 10 7 5 4 3 4 4 5 6 6 6 6 6 6 6 6 6 6 6 6 6
3 3 4 5 7 4 5 7 9 11 12 13 15 16 17 17 16 16 16 16 16 16 16 16 15 15 14 13 11 9 7 6 5 4 4 5 5 6 7 7 8 8 7 7 7 8 8 7 7
8 8 5 6 8 4 5 7 9 11 11 12 13 14 15 16 16 16 15 15 15 15 16 16 15 15 15 14 12 10 8 7 6 4 4 4 5 6 6 7 8 8 9 9 8 9 9 8 8
10 8 5 7 8 5 5 6 8 11 11 11 12 13 14 15 15 15 15 15 15 15 16 16 16 16 15 14 13 11 10 8 7 6 5 5 5 5 6 8 9 9 10 10 10 10 10 10 10
10 9 8 9 9 7 6 8 8 9 12 11 11 12 12 13 14 15 15 15 15 15 16 16 16 16 15 14 12 12 12 10 8 8 7 5 5 5 6 7 8 9 10 10 10 11 11 11 11
11 10 11 10 9 8 8 11 13 9 11 12 11 11 11 12 13 14 15 15 15 15 16 16 16 16 16 15 13 13 12 11 10 9 7 6 6 6 6 6 7 8 9 10 10 10 11 12 12
14 13 12 12 11 9 8 11 15 12 10 11 11 11 11 12 13 14 15 15 15 15 15 16 16 16 16 16 14 13 13 12 11 10 9 8 7 6 6 6 7 8 8 9 10 11 11 12 12
17 15 13 11 11 12 9 10 14 12 11 10 10 11 11 11 12 13 13 14 14 15 15 16 16 17 16 16 15 14 13 13 12 11 9 9 9 8 7 8 8 8 9 10 11 11 11 12 13
18 15 12 12 11 11 9 11 14 14 12 11 12 12 12 11 12 12 12 13 14 14 15 16 16 17 16 16 16 14 13 13 13 12 10 9 9 10 9 8 9 10 10 11 12 13 12 12 13
19 17 15 13 11 11 11 12 13 16 15 14 14 13 13 12 11 12 12 13 14 14 15 15 16 16 17 16 16 15 14 13 13 12 11 11 10 10 10 10 10 10 10 11 11 12 12 13 14
20 19 16 15 14 14 14 11 14 18 17 16 14 14 13 12 12 12 12 12 13 14 15 15 16 16 16 16 15 15 14 13 13 12 12 12 12 11 11 11 11 11 11 11 11 11 12 13 13
22 20 18 19 19 18 15 14 16 18 17 16 14 14 14 13 12 12 12 12 13 14 14 15 16 16 16 16 15 15 15 14 14 13 13 13 13 12 13 12 12 12 12 12 12 12 13 13 14
24 23 23 22 20 18 16 16 18 19 19 17 15 16 15 14 13 13 12 12 12 13 14 15 15 15 15 15 15 15 16 16 15 15 15 15 14 14 14 14 14 14 15 14 14 14 14 15 15
24 23 23 24 25 23 19 17 15 15 17 16 15 17 17 15 15 15 15 12 14 14 14 15 16 16 16 15 16 16 16 16 16 17 17 16 16 16 15 15 15 15 15 15 15 16 16 16 16
Wind_Direction
67 66 63 57 52 46 44 48 47 49 52 56 57 54 55 54 47 44 43 43 68 85 105 114 117 123 137 138 140 151 157 163 164 163 161 158 156 155 151 143 137 134 131 126 121 120 117 114 109
72 68 62 55 47 35 40 45 45 49 50 48 48 47 48 47 47 45 42 48 64 72 81 108 118 135 142 140 142 157 163 166 166 164 162 161 160 158 154 151 145 141 136 131 128 124 122 122 117
72 66 62 51 40 37 38 41 41 43 46 46 43 40 42 44 50 51 50 52 57 53 55 86 98 145 154 158 167 170 175 177 178 172 168 167 168 165 160 158 156 153 146 140 137 133 127 126 124
67 65 61 47 40 39 38 37 39 39 42 43 43 42 43 46 45 45 46 46 43 41 45 61 108 125 159 168 167 172 180 186 188 181 169 169 169 168 166 165 165 161 153 145 142 138 130 128 131
66 62 59 43 33 37 37 34 35 38 40 41 43 41 41 43 43 42 39 43 38 37 39 46 53 58 127 158 169 176 174 177 176 177 171 167 165 163 163 163 167 166 162 153 146 137 126 116 131
66 62 50 39 35 35 33 31 29 31 34 38 41 39 37 39 41 40 37 38 37 36 39 46 43 27 96 171 185 186 197 199 189 181 175 170 168 166 162 163 168 165 165 159 148 140 128 122 135
65 66 58 36 33 36 35 35 34 32 33 34 36 37 36 38 38 37 33 35 38 39 39 42 37 5 28 24 237 216 223 210 194 187 185 179 177 176 166 165 172 168 164 161 156 145 142 137 139
63 56 52 38 35 39 31 30 33 36 37 34 32 36 35 36 34 33 32 30 30 27 27 28 25 2 344 304 258 226 203 197 195 194 195 192 184 183 185 175 165 153 150 153 155 150 151 139 138
57 55 45 38 33 38 31 26 31 34 33 32 30 31 33 34 34 34 32 29 26 22 18 16 17 7 354 332 263 225 213 206 202 198 199 201 200 196 197 194 178 155 153 155 154 151 149 150 141
52 46 40 43 38 38 34 32 30 29 28 29 31 32 33 36 35 35 34 32 29 26 23 16 16 5 349 333 293 248 221 215 215 205 208 210 216 215 208 198 188 173 165 161 164 159 156 152 144
57 45 42 44 42 44 37 31 31 28 26 24 29 32 35 37 36 35 35 33 29 27 25 21 13 6 360 353 333 275 212 213 212 211 218 224 222 224 220 205 196 179 178 176 173 167 163 163 155
53 48 50 45 39 43 43 36 33 28 26 26 28 33 36 37 37 36 34 32 30 28 23 19 16 12 9 4 353 298 233 218 221 221 226 237 238 237 233 229 226 204 200 194 184 172 173 173 160
49 47 47 38 34 36 44 37 34 30 28 26 27 32 33 34 36 35 33 30 30 28 24 21 20 19 15 8 1 335 254 233 241 234 239 246 245 248 246 246 242 228 217 202 188 192 185 179 162
120 49 36 29 20 18 34 41 28 24 23 26 27 30 31 31 32 33 32 30 29 28 26 24 22 20 15 8 4 4 331 258 244 240 243 239 241 244 246 249 244 236 227 204 192 191 189 185 184
101 51 24 4 1 355 15 29 27 14 18 22 26 28 29 29 29 31 32 32 30 29 28 27 24 21 17 14 13 11 351 298 269 246 239 234 235 237 244 249 252 244 229 216 212 210 209 207 201
52 28 1 333 335 349 4 10 12 5 12 19 23 27 28 28 28 29 30 29 28 28 28 27 25 23 19 17 18 16 7 334 294 275 255 245 242 240 245 246 249 247 240 234 232 230 230 225 227
338 313 304 308 318 338 349 354 357 358 5 14 19 23 24 26 27 27 27 27 26 27 27 27 25 24 22 19 18 19 13 356 326 294 272 261 255 250 254 252 252 253 255 248 243 242 241 238 240
221 256 268 284 298 316 325 341 343 349 356 6 13 17 21 23 24 25 25 25 25 25 25 25 23 22 21 19 18 20 16 5 351 319 286 265 266 265 265 259 258 257 258 254 249 247 246 246 246
217 221 229 260 281 288 306 325 332 338 347 357 3 10 15 20 22 24 23 23 24 23 22 20 19 19 17 17 16 17 12 4 355 338 307 284 270 266 264 261 260 261 260 257 253 251 250 253 254
224 222 235 265 275 268 274 305 320 327 336 346 354 2 10 16 19 21 20 19 19 19 18 18 16 15 13 14 13 12 9 5 358 353 333 307 284 272 272 267 266 264 262 259 258 256 253 257 258
227 231 228 240 266 285 286 288 291 310 322 333 345 354 1 10 14 15 15 14 14 13 13 13 13 13 11 11 10 9 6 2 358 350 341 328 312 294 283 278 271 266 263 261 261 263 258 259 259
228 237 239 235 246 264 277 287 297 288 304 320 333 345 352 1 6 9 9 9 9 10 11 11 10 10 8 8 7 5 2 358 355 350 341 339 332 309 293 284 279 274 272 265 267 269 269 266 264
223 228 237 237 242 251 256 278 288 288 289 306 324 337 343 350 356 360 3 5 6 7 8 6 7 7 7 6 5 2 359 357 354 352 344 343 339 326 311 302 293 287 281 275 273 275 274 270 269
226 228 238 240 241 250 247 259 276 283 281 289 307 320 325 336 344 350 355 358 1 3 4 4 5 5 4 4 3 0 358 357 353 350 347 343 343 338 319 308 302 295 287 282 280 278 280 275 275
229 228 236 248 252 261 252 248 259 267 276 284 290 298 306 319 331 338 346 351 353 358 360 2 2 2 2 1 360 358 357 357 357 354 351 347 343 340 331 318 308 303 295 289 287 284 284 281 278
230 225 227 239 256 272 251 242 253 264 269 269 273 282 294 305 318 323 332 344 344 349 355 357 358 359 359 359 358 357 356 357 356 355 354 350 345 340 335 331 324 317 310 303 297 293 290 288 287
227 226 226 240 251 263 270 261 252 261 270 275 273 275 284 294 303 314 325 334 339 343 349 351 353 355 356 356 356 357 355 354 356 355 352 348 345 341 337 332 329 325 320 310 301 298 296 294 293
225 226 226 231 242 249 254 260 257 264 271 277 276 271 272 279 290 301 312 320 330 336 341 344 346 348 351 353 355 355 354 351 351 351 349 345 341 337 334 330 326 322 319 313 303 298 298 297 294
230 225 224 227 230 239 250 256 255 256 264 272 274 273 277 285 288 292 298 309 320 327 332 336 339 341 344 348 350 352 353 352 348 346 344 341 338 336 332 331 326 319 313 309 306 302 299 297 295
233 231 229 230 229 226 235 251 260 264 266 270 270 271 271 279 282 289 297 305 313 317 324 328 332 334 336 339 343 345 345 346 346 346 344 341 338 336 332 330 328 324 317 311 308 305 303 299 297
Height
5911 5910 5909 5907 5906 5908 5906 5905 5903 5901 5900 5899 5897 5896 5895 5895 5895 5896 5893 5891 5892 5891 5891 5891 5892 5892 5893 5893 5894 5894 5895 5895 5895 5896 5896 5897 5897 5898 5898 5899 5899 5900 5900 5901 5901 5901 5902 5902 5903
5915 5914 5910 5909 5912 5911 5909 5907 5905 5903 5902 5900 5899 5898 5897 5896 5896 5895 5893 5893 5893 5892 5892 5892 5893 5893 5894 5894 5895 5895 5896 5896 5896 5896 5897 5897 5898 5898 5899 5899 5900 5901 5901 5901 5902 5902 5903 5903 5903
5918 5914 5912 5915 5916 5914 5912 5910 5907 5905 5904 5902 5901 5900 5898 5897 5897 5896 5895 5894 5894 5894 5893 5893 5893 5894 5894 5895 5896 5896 5896 5896 5897 5897 5897 5898 5898 5899 5899 5900 5901 5901 5902 5902 5903 5903 5903 5904 5904
5919 5915 5918 5922 5920 5917 5915 5912 5909 5908 5906 5904 5903 5902 5900 5899 5898 5897 5896 5895 5895 5895 5894 5894 5894 5895 5895 5895 5896 5896 5896 5897 5897 5898 5898 5898 5899 5899 5900 5901 5901 5902 5902 5903 5903 5904 5904 5904 5904
5920 5920 5924 5925 5922 5920 5918 5915 5912 5910 5908 5906 5905 5903 5902 5901 5899 5898 5897 5896 5896 5895 5895 5895 5895 5895 5896 5896 5896 5897 5897 5897 5898 5898 5898 5899 5899 5900 5900 5901 5902 5902 5903 5903 5904 5904 5904 5904 5905
5922 5925 5928 5928 5926 5923 5921 5918 5915 5913 5910 5908 5906 5905 5903 5902 5901 5900 5898 5898 5897 5896 5896 5895 5896 5896 5896 5897 5897 5897 5897 5898 5898 5898 5899 5899 5900 5900 5901 5901 5902 5902 5903 5904 5904 5904 5905 5905 5905
5928 5930 5930 5931 5928 5926 5924 5921 5918 5916 5913 5911 5908 5906 5905 5904 5902 5901 5900 5899 5898 5897 5897 5896 5896 5896 5897 5897 5897 5897 5898 5898 5898 5899 5899 5900 5900 5901 5901 5901 5902 5902 5903 5904 5904 5904 5905 5905 5906
5933 5935 5933 5934 5932 5929 5927 5924 5920 5918 5916 5913 5911 5909 5907 5905 5904 5902 5901 5900 5899 5898 5898 5897 5897 5897 5897 5897 5897 5897 5898 5898 5899 5899 5900 5900 5901 5901 5901 5902 5902 5902 5903 5904 5904 5905 5905 5906 5906
5937 5939 5938 5936 5934 5932 5929 5926 5923 5920 5918 5915 5913 5911 5909 5907 5905 5904 5902 5901 5900 5899 5898 5898 5898 5897 5897 5897 5897 5898 5898 5898 5899 5899 5900 5900 5901 5901 5902 5902 5903 5903 5903 5904 5904 5905 5905 5906 5907
5941 5941 5941 5939 5936 5934 5931 5928 5925 5923 5920 5918 5916 5913 5910 5909 5907 5905 5904 5902 5901 5900 5899 5899 5898 5898 5898 5897 5898 5898 5898 5898 5899 5899 5900 5901 5901 5902 5902 5902 5903 5903 5903 5904 5905 5905 5906 5907 5907
5944 5944 5942 5940 5938 5936 5933 5931 5928 5926 5923 5921 5918 5915 5913 5911 5909 5907 5906 5904 5903 5902 5901 5900 5899 5899 5898 5898 5898 5898 5898 5898 5899 5899 5900 5901 5901 5902 5902 5903 5903 5903 5904 5904 5905 5905 5906 5907 5908
5945 5944 5943 5942 5939 5938 5936 5934 5932 5929 5927 5924 5921 5918 5915 5913 5911 5909 5907 5906 5905 5903 5902 5901 5900 5899 5898 5898 5898 5898 5898 5898 5899 5899 5900 5901 5901 5902 5902 5903 5903 5904 5904 5905 5905 5906 5907 5907 5908
5946 5945 5944 5943 5942 5939 5937 5936 5934 5931 5928 5926 5923 5920 5918 5915 5913 5911 5910 5908 5906 5905 5903 5902 5901 5900 5899 5898 5898 5897 5898 5899 5899 5899 5900 5901 5901 5902 5902 5903 5903 5904 5904 5905 5905 5906 5907 5908 5908
5945 5945 5945 5945 5943 5941 5938 5937 5936 5933 5931 5928 5925 5923 5920 5918 5916 5914 5912 5910 5908 5907 5905 5904 5902 5901 5899 5898 5898 5897 5898 5898 5899 5899 5900 5900 5901 5902 5902 5903 5903 5904 5904 5905 5905 5906 5907 5908 5908
5944 5946 5947 5947 5945 5943 5940 5938 5938 5935 5933 5930 5928 5925 5923 5920 5918 5916 5914 5913 5911 5909 5907 5905 5904 5902 5900 5899 5898 5898 5898 5898 5899 5899 5900 5900 5901 5902 5902 5903 5903 5904 5905 5905 5906 5906 5907 5907 5908
5945 5948 5948 5949 5947 5945 5943 5941 5939 5937 5935 5933 5930 5928 5925 5923 5921 5918 5917 5915 5913 5911 5909 5907 5905 5903 5902 5900 5899 5899 5898 5898 5898 5899 5899 5900 5900 5901 5902 5902 5903 5903 5904 5905 5905 5906 5906 5907 5908
5948 5949 5950 5950 5948 5947 5945 5943 5941 5939 5937 5934 5932 5930 5927 5925 5923 5921 5919 5917 5915 5913 5911 5909 5907 5905 5903 5901 5900 5899 5899 5899 5898 5899 5899 5899 5900 5900 5901 5901 5902 5903 5904 5904 5905 5905 5906 5906 5907
5949 5951 5952 5952 5949 5948 5946 5945 5942 5941 5939 5936 5934 5932 5929 5927 5925 5923 5921 5919 5917 5915 5913 5911 5909 5907 5905 5903 5901 5900 5900 5899 5898 5898 5898 5899 5899 5899 5900 5901 5901 5902 5903 5903 5904 5904 5905 5905 5906
5948 5950 5951 5951 5949 5948 5947 5946 5944 5941 5940 5937 5935 5933 5931 5929 5927 5925 5923 5921 5919 5917 5915 5913 5910 5909 5907 5905 5903 5902 5901 5899 5899 5898 5898 5898 5898 5898 5899 5899 5900 5901 5901 5902 5902 5903 5903 5904 5904
5946 5948 5949 5950 5949 5948 5948 5947 5945 5942 5940 5939 5937 5934 5932 5930 5928 5926 5924 5922 5920 5918 5916 5914 5912 5910 5908 5906 5904 5903 5901 5900 5899 5898 5897 5897 5897 5897 5897 5898 5898 5899 5899 5900 5900 5901 5901 5902 5902
5944 5946 5948 5949 5948 5946 5946 5946 5944 5943 5941 5939 5937 5935 5933 5931 5930 5928 5925 5923 5922 5920 5918 5916 5914 5911 5909 5907 5905 5903 5902 5900 5899 5898 5897 5896 5896 5896 5896 5896 5897 5897 5897 5898 5898 5898 5899 5899 5900
5943 5945 5945 5946 5946 5946 5947 5946 5943 5941 5940 5939 5937 5935 5934 5932 5930 5928 5926 5924 5923 5921 5919 5917 5915 5912 5910 5908 5906 5904 5902 5901 5899 5898 5897 5896 5896 5895 5895 5895 5895 5895 5895 5895 5895 5896 5896 5896 5897
5939 5941 5942 5943 5943 5944 5945 5945 5943 5940 5938 5938 5937 5935 5934 5932 5931 5929 5927 5925 5923 5921 5920 5918 5915 5913 5911 5909 5907 5905 5903 5901 5899 5898 5897 5896 5895 5895 5894 5894 5894 5893 5893 5893 5893 5893 5893 5894 5894
5935 5937 5938 5939 5941 5942 5944 5945 5942 5939 5937 5935 5935 5935 5934 5933 5931 5929 5928 5926 5924 5922 5920 5918 5916 5914 5912 5909 5907 5905 5903 5901 5899 5898 5896 5896 5895 5894 5893 5893 5892 5892 5891 5891 5891 5891 5890 5890 5891
5932 5934 5937 5938 5939 5939 5941 5943 5941 5939 5938 5937 5936 5935 5933 5932 5931 5929 5928 5926 5924 5922 5921 5919 5917 5914 5912 5910 5908 5905 5903 5901 5899 5897 5896 5896 5895 5894 5892 5891 5890 5890 5889 5889 5888 5888 5887 5887 5887
5928 5931 5934 5936 5938 5937 5937 5939 5938 5937 5936 5936 5935 5934 5932 5931 5930 5928 5927 5926 5924 5922 5920 5919 5917 5915 5913 5910 5908 5905 5903 5901 5900 5898 5897 5895 5894 5893 5891 5890 5889 5888 5887 5887 5886 5885 5884 5884 5884
5924 5927 5931 5934 5935 5936 5935 5936 5935 5933 5933 5933 5932 5932 5931 5930 5929 5927 5926 5925 5923 5922 5920 5919 5917 5915 5913 5910 5908 5906 5904 5902 5900 5898 5896 5895 5893 5892 5890 5889 5887 5886 5885 5884 5883 5883 5882 5881 5881
5919 5923 5927 5929 5931 5933 5935 5934 5932 5930 5930 5930 5930 5929 5928 5926 5925 5925 5925 5924 5923 5921 5920 5918 5916 5915 5913 5910 5908 5906 5903 5901 5899 5898 5896 5894 5892 5891 5889 5887 5886 5885 5883 5882 5881 5880 5879 5879 5877
5914 5918 5920 5924 5926 5929 5931 5933 5928 5926 5927 5927 5927 5926 5925 5924 5923 5922 5921 5921 5921 5920 5919 5917 5916 5914 5912 5910 5908 5906 5904 5901 5899 5897 5895 5893 5891 5889 5888 5886 5884 5883 5881 5879 5878 5877 5876 5875 5874
5909 5912 5916 5919 5920 5922 5925 5929 5923 5923 5923 5924 5924 5923 5922 5922 5921 5920 5918 5918 5919 5918 5917 5916 5915 5913 5911 5910 5908 5905 5903 5901 5899 5897 5895 5893 5890 5888 5886 5884 5882 5880 5878 5876 5875 5873 5872 5871 5870